[[{"header":{"parameterUnit":"m.s-1","parameterCategory":1,"la1":30.2991,"la2":30.254,"lo1":-89.0895,"lo2":-89.0444,"dy":0.0017,"dx":0.0017,"nx":28,"ny":28,"refTime":"2023-10-20T09:00:00:Z","depth":0,"parameterNumber":2,"parameterNumberName":"U-component_of_WINDS"},"data":[0,0,0,0,0,0,0,0,0,0,0,0,0,0,0,0,0,0,0,0,0,0,0,0,0,0,0,0,0,0,0,0,0,0,0,0,0,0,0,0,0,0,0,0,0,0,0,0,0,0,0,0,0,0,0,0,0,0,2.8595,2.8596,0,2.8723,2.8724,2.8726,2.8722,2.872,2.8719,2.8717,2.885,2.8855,2.8861,0,0,0,0,0,0,0,0,0,0,0,0,0,2.8351,2.8355,2.8595,2.8596,2.8598,2.8723,2.8724,2.8726,2.8722,2.872,2.8718,2.8716,2.8849,2.8855,2.8861,0,0,0,0,0,0,0,0,0,0,0,0,0,2.8466,2.8357,2.8594,2.8611,2.8614,2.8722,2.8725,2.8727,2.8723,2.872,2.8718,2.8715,2.8847,2.8854,2.8862,2.8963,0,0,2.8886,2.8889,0,0,0,0,0,0,0,0,2.8459,2.8475,2.8607,2.861,2.8613,2.8704,2.8687,2.8806,2.8724,2.8682,2.8717,2.8714,2.8804,2.8815,2.8845,2.8969,2.8975,2.8886,2.8891,2.8895,2.8897,0,0,0,0,0,0,0,2.8451,2.8469,2.8645,2.8609,2.8613,2.8613,2.8627,2.871,2.8756,2.8685,2.8685,2.87,2.8805,2.8837,2.8848,2.8977,2.8886,2.8893,2.8898,2.8901,2.9194,2.9197,0,0,0,0,0,0,2.8439,2.8462,2.8641,2.8649,2.8528,2.862,2.8635,2.8677,2.8755,2.8764,2.8702,2.87,2.8825,2.8839,2.8853,2.8978,2.8894,2.8902,2.8906,2.9191,2.9195,2.9198,0,0,0,0,0,0,2.8434,2.8455,2.8636,2.8556,2.8579,2.8627,2.8675,2.8681,2.8714,2.8768,2.8777,2.8726,2.8824,2.8842,2.8936,2.8982,2.8905,2.8912,2.9187,2.9192,2.9196,2.9227,0,0,0,0,0,0,2.8427,2.8453,2.8491,2.8557,2.8583,2.8716,2.8678,2.8686,2.8727,2.8724,2.8793,2.8802,2.8823,2.8925,2.8944,2.8991,2.8918,2.9183,2.9189,2.9195,2.9222,2.9232,2.9241,0,0,0,0,0,2.8418,2.8494,2.8493,2.8514,2.8631,2.8719,2.8734,2.8756,2.873,2.877,2.8805,2.88,2.8974,2.8934,2.8956,2.9007,2.918,2.9188,2.9194,2.9218,2.923,2.9241,0,0,0,0,0,0,2.8432,2.8503,2.8502,2.8602,2.8654,2.8718,2.8767,2.8768,2.8829,2.8824,2.885,2.8866,2.8961,2.8993,2.8947,2.911,2.9074,2.9086,2.9085,2.9097,2.9106,2.9096,2.8925,0,0,0,0,0,2.8447,2.8511,2.857,2.8652,2.8679,2.8719,2.8758,2.8771,2.8826,2.8848,2.8891,2.8946,2.9014,2.9057,2.9122,2.9228,2.9244,2.9274,2.9283,2.929,2.93,2.936,2.9374,2.9221,2.9221,2.9221,0,0,2.8478,2.8525,2.8563,2.8656,2.8698,2.8766,2.8737,2.8809,2.886,2.886,2.8951,2.8985,2.9048,2.9149,2.9196,2.9179,2.9346,2.9299,2.9305,2.931,2.9369,2.9383,2.9396,2.9226,2.9225,2.9224,0,0,2.8568,2.861,2.8683,2.8727,2.8792,2.8818,2.8836,2.8901,2.8923,2.9015,2.9018,2.9079,2.9194,2.924,2.9278,2.939,2.9388,2.9411,2.9459,2.9518,2.953,2.9541,2.9581,2.9596,2.9421,2.9421,2.9421,0,2.8599,2.8699,2.8721,2.8794,2.8836,2.884,2.8916,2.8957,2.904,2.9069,2.905,2.9196,2.9239,2.9352,2.9379,2.941,2.9433,2.9402,2.9526,2.9537,2.9548,2.9587,2.9602,2.9423,2.9423,2.9423,2.9422,0,2.8733,2.8803,2.8855,2.8935,2.8983,2.9057,2.9093,2.9139,2.9149,2.9178,2.9274,2.9326,2.9403,2.9431,2.9441,2.9546,2.9534,2.952,2.9485,2.9564,2.9602,2.9617,2.9426,2.9426,2.9425,2.9424,0,0,2.8833,2.8927,2.8946,2.8983,2.9056,2.9111,2.9187,2.9262,2.9301,2.936,2.9425,2.9524,2.9512,2.9556,2.9572,2.9623,2.9711,2.9604,2.9606,2.9622,2.9831,2.984,2.9857,2.971,2.9713,2.9716,2.9826,0,2.8931,2.9064,2.9088,2.9205,2.9271,2.9277,2.9344,2.9397,2.9427,2.9489,2.9523,2.9593,2.9573,2.9599,2.9651,2.9689,2.9753,2.9681,2.9772,2.9775,2.9755,2.9877,2.9886,2.9987,2.9841,2.9843,2.9845,0,2.9062,2.9124,2.9247,2.9314,2.9342,2.9401,2.9473,2.9532,2.9593,2.9612,2.9663,2.9674,2.9755,2.9717,2.983,2.9781,2.982,2.9845,2.9849,2.9858,2.9814,2.9888,3.002,3.0035,2.9868,2.9866,2.9864,0,2.9123,2.9237,2.9326,2.9358,2.9438,2.9479,2.9515,2.9574,2.9618,2.9682,2.9712,2.9784,2.9824,2.9881,2.9912,2.9881,3.0023,2.9987,3.0042,3.0041,3.007,3.0068,3.021,3.0097,3.0097,3.0096,3.0096,0,2.923,2.9304,2.9355,2.9409,2.9494,2.9523,2.9608,2.9643,2.9696,2.9759,2.977,2.9829,2.9867,2.9932,2.9957,3.0048,3.0066,3.0084,3.009,3.0083,3.008,3.0108,3.0101,3.01,3.0099,3.0099,3.0098,0,2.9311,2.9347,2.9445,2.9513,2.9533,2.9592,2.9652,2.9706,2.9738,2.9818,2.9838,2.9889,2.9966,3.0004,3.01,3.0117,3.022,3.0221,3.0198,3.02,3.0253,3.0247,3.0417,3.0441,3.0312,3.0314,3.0315,0,2.9375,2.9433,2.9509,2.9552,2.9588,2.9657,2.9703,2.9735,2.9782,2.9859,2.9904,2.9983,3.0046,3.0171,3.0217,3.0291,3.0294,3.0349,3.0306,3.0297,3.0295,3.0291,3.0298,3.0356,3.0357,3.0358,3.0359,0,2.9487,2.9503,2.9567,2.964,2.9694,2.9753,2.9811,2.9846,2.9887,2.9941,3.002,3.007,3.0169,3.0247,3.0326,3.0364,3.0369,3.0373,3.0389,3.0382,3.0366,3.0376,3.0219,3.0368,3.0367,3.0367,3.0366,3.0366,2.9562,2.9614,2.9676,2.9749,2.9796,2.9851,2.9906,2.9945,3.0012,3.0094,3.011,3.0195,3.0259,3.0364,3.0406,3.0474,3.0462,3.0486,3.0492,3.0497,3.05,3.0357,3.0489,3.0488,3.0488,3.0488,3.0488,0,2.9674,2.9714,2.9781,2.9862,2.992,2.9921,2.9985,3.0034,3.0108,3.0167,3.023,3.0323,3.04,3.0453,3.0532,3.0576,3.0581,3.0596,3.0592,3.0601,3.0506,3.0484,3.0591,3.0591,3.0591,3.0591,3.0591,3.0591,2.9738,2.9828,2.9852,2.9966,3.0007,3.0089,3.0127,3.0178,3.0225,3.0328,3.0391,3.0426,3.0483,3.0566,3.0638,3.0652,3.068,3.0695,3.0709,3.0619,3.0608,3.0597,3.0576,3.0701,3.0701,3.0798,3.0799,3.08]},{"header":{"parameterUnit":"m.s-1","parameterCategory":1,"la1":30.2991,"la2":30.254,"lo1":-89.0895,"lo2":-89.0444,"dy":0.0017,"dx":0.0017,"nx":28,"ny":28,"refTime":"2023-10-20T09:00:00:Z","depth":0,"parameterNumber":3,"parameterNumberName":"V-component_of_WINDS"},"data":[0,0,0,0,0,0,0,0,0,0,0,0,0,0,0,0,0,0,0,0,0,0,0,0,0,0,0,0,0,0,0,0,0,0,0,0,0,0,0,0,0,0,0,0,0,0,0,0,0,0,0,0,0,0,0,0,0,0,1.639,1.6391,0,1.6467,1.6468,1.6469,1.6471,1.647,1.6469,1.6468,1.6548,1.6551,1.6554,0,0,0,0,0,0,0,0,0,0,0,0,0,1.6244,1.6247,1.639,1.6391,1.6392,1.6467,1.6468,1.6469,1.6471,1.647,1.6468,1.6467,1.6547,1.655,1.6554,0,0,0,0,0,0,0,0,0,0,0,0,0,1.6313,1.6248,1.639,1.6402,1.6404,1.6467,1.6468,1.647,1.6471,1.6469,1.6468,1.6467,1.6545,1.655,1.6554,1.6612,0,0,1.6568,1.657,0,0,0,0,0,0,0,0,1.6309,1.6319,1.6399,1.6401,1.6403,1.6458,1.6446,1.6517,1.6471,1.6445,1.6468,1.6466,1.6519,1.6526,1.6543,1.6615,1.6619,1.6569,1.6571,1.6573,1.6575,0,0,0,0,0,0,0,1.6305,1.6315,1.6421,1.64,1.6403,1.6403,1.6412,1.646,1.6489,1.6448,1.6448,1.6457,1.652,1.6539,1.6545,1.662,1.6569,1.6573,1.6575,1.6577,1.6743,1.6745,0,0,0,0,0,0,1.6297,1.6311,1.6418,1.6423,1.6352,1.6407,1.6416,1.6442,1.6489,1.6495,1.6458,1.6457,1.6532,1.654,1.6548,1.6618,1.6573,1.6578,1.658,1.6741,1.6743,1.6745,0,0,0,0,0,0,1.6294,1.6307,1.6415,1.6367,1.6381,1.6411,1.644,1.6444,1.6463,1.6497,1.6502,1.6472,1.6531,1.6542,1.6596,1.6621,1.658,1.6584,1.6739,1.6742,1.6744,1.6759,0,0,0,0,0,0,1.629,1.6306,1.6328,1.6368,1.6384,1.6461,1.6441,1.6447,1.6471,1.647,1.6511,1.6517,1.6531,1.6589,1.66,1.6627,1.6587,1.6737,1.6741,1.6743,1.6756,1.6762,1.6766,0,0,0,0,0,1.6285,1.6329,1.6329,1.6342,1.6412,1.6463,1.6472,1.6487,1.6473,1.6495,1.6517,1.6516,1.6616,1.6594,1.6607,1.6635,1.6736,1.674,1.6743,1.6754,1.6761,1.6766,0,0,0,0,0,0,1.6291,1.6334,1.6335,1.6393,1.6424,1.6463,1.6491,1.6493,1.6529,1.6527,1.6544,1.6553,1.6607,1.6627,1.6601,1.6693,1.6674,1.6681,1.6678,1.6685,1.669,1.6684,1.6591,0,0,0,0,0,1.6299,1.6337,1.6373,1.642,1.6436,1.6461,1.6484,1.6493,1.6526,1.6539,1.6565,1.6597,1.6636,1.6662,1.6699,1.6759,1.6768,1.6785,1.679,1.6794,1.6799,1.6832,1.684,1.6758,1.6758,1.6757,0,0,1.6316,1.6344,1.6367,1.6422,1.6448,1.6487,1.6472,1.6514,1.6543,1.6546,1.6598,1.6618,1.6656,1.6713,1.6739,1.6731,1.6824,1.6798,1.6801,1.6805,1.6837,1.6845,1.6852,1.676,1.676,1.6759,0,0,1.6367,1.6392,1.6435,1.646,1.6499,1.6515,1.6526,1.6564,1.6578,1.6631,1.6633,1.6669,1.6735,1.6762,1.6784,1.6846,1.6846,1.6858,1.6883,1.6916,1.6922,1.6928,1.695,1.6958,1.6863,1.6863,1.6863,0,1.6383,1.6442,1.6456,1.6498,1.6523,1.6527,1.657,1.6595,1.6644,1.666,1.665,1.6734,1.676,1.6823,1.6838,1.6856,1.6869,1.6853,1.692,1.6926,1.6932,1.6953,1.6961,1.6864,1.6864,1.6864,1.6864,0,1.646,1.6501,1.653,1.6577,1.6605,1.6648,1.6669,1.6696,1.6702,1.672,1.6774,1.6805,1.6849,1.6865,1.6871,1.6929,1.6923,1.6916,1.6898,1.694,1.696,1.6969,1.6866,1.6865,1.6865,1.6865,0,0,1.6516,1.6571,1.6582,1.6603,1.6646,1.6678,1.6721,1.6764,1.6787,1.682,1.6857,1.6914,1.6908,1.6933,1.6943,1.6971,1.7018,1.6961,1.6962,1.697,1.7084,1.7089,1.7098,1.7018,1.702,1.7021,1.7081,0,1.6572,1.6648,1.6663,1.6729,1.6767,1.6771,1.6809,1.6839,1.6857,1.6892,1.6912,1.6952,1.6941,1.6956,1.6984,1.7006,1.7041,1.7002,1.7053,1.7054,1.7043,1.7108,1.7113,1.7168,1.7089,1.709,1.7091,0,1.6646,1.6682,1.6752,1.679,1.6807,1.684,1.6881,1.6914,1.6949,1.696,1.6988,1.6995,1.704,1.702,1.7082,1.7055,1.7077,1.7091,1.7093,1.7099,1.7075,1.7115,1.7186,1.7194,1.7104,1.7103,1.7102,0,1.668,1.6746,1.6796,1.6814,1.686,1.6884,1.6904,1.6937,1.6963,1.6998,1.7015,1.7055,1.7078,1.7109,1.7127,1.711,1.7188,1.7169,1.7198,1.7198,1.7214,1.7213,1.7289,1.7229,1.7228,1.7228,1.7228,0,1.674,1.6783,1.6812,1.6843,1.6891,1.6908,1.6955,1.6975,1.7005,1.704,1.7047,1.708,1.7101,1.7137,1.7151,1.7201,1.7211,1.7221,1.7224,1.722,1.7219,1.7235,1.7231,1.723,1.723,1.723,1.7229,0,1.6786,1.6807,1.6863,1.6902,1.6913,1.6946,1.698,1.701,1.7028,1.7073,1.7084,1.7112,1.7155,1.7176,1.7229,1.7238,1.7295,1.7295,1.7283,1.7284,1.7312,1.7309,1.7401,1.7414,1.7345,1.7345,1.7346,0,1.6823,1.6856,1.6899,1.6923,1.6944,1.6982,1.7008,1.7026,1.7052,1.7095,1.712,1.7163,1.7199,1.7267,1.7292,1.7333,1.7335,1.7364,1.7341,1.7336,1.7335,1.7333,1.7336,1.7368,1.7369,1.737,1.737,0,1.6886,1.6895,1.6932,1.6973,1.7003,1.7036,1.7068,1.7087,1.7111,1.714,1.7184,1.7212,1.7266,1.7309,1.7351,1.7372,1.7375,1.7377,1.7386,1.7382,1.7374,1.7379,1.7294,1.7375,1.7374,1.7374,1.7374,1.7374,1.6929,1.6958,1.6993,1.7034,1.706,1.709,1.7121,1.7143,1.718,1.7225,1.7234,1.728,1.7315,1.7372,1.7395,1.7432,1.7425,1.7438,1.7441,1.7444,1.7446,1.7368,1.744,1.744,1.7439,1.7439,1.7439,0,1.6992,1.7015,1.7052,1.7097,1.713,1.713,1.7166,1.7192,1.7233,1.7265,1.73,1.7351,1.7392,1.7421,1.7463,1.7487,1.749,1.7498,1.7496,1.7501,1.7449,1.7437,1.7495,1.7495,1.7495,1.7495,1.7495,1.7495,1.7029,1.7079,1.7092,1.7155,1.7178,1.7224,1.7244,1.7272,1.7298,1.7354,1.7389,1.7407,1.7438,1.7483,1.7521,1.7528,1.7544,1.7552,1.7559,1.751,1.7504,1.7499,1.7488,1.7555,1.7555,1.7607,1.7608,1.7608]}]]